Regional Weather Roundup
Issued by NWS Sterling, VA

Home | Current Version | Previous Version | Graphics & Text | Print | Product List | Glossary On
Versions: 1 2 3 4 5 6 7 8 9 10 11 12 13 14 15 16 17 18 19 20 21 22 23 24 25 26 27 28 29 30 31 32 33 34 35 36 37 38 39 40 41 42 43 44 45 46 47 48 49 50
000
ASUS41 KLWX 200310
RWRLWX

REGIONAL WEATHER ROUNDUP
NATIONAL WEATHER SERVICE BALTIMORE MD/WASHINGTON DC
1000 PM EST FRI DEC 19 2014

Note: "FAIR" indicates few or no clouds below 12,000 feet
with no significant weather and/or obstructions to visibility.
 TC=TEMPERATURE CELSIUS

 * =Non NWS site. Station does not report precipitation (e.g. rain,
    snow, etc.), thunder, or fog.

DCZ001-MDZ009-015-VAZ040>042-051-053>054-200400-
WASHINGTON METRO

CITY           SKY/WX    TMP DP  RH WIND       PRES   REMARKS
WASHINGTON NAT CLEAR     36  22  56 NW10      30.27R WCI  28
DULLES         CLEAR     30  21  69 NW7       30.25R
ANDREWS AFB    CLEAR     33  22  64 NW7       30.24R
FT BELVOIR     CLEAR     26  22  87 CALM      30.26S
QUANTICO       CLEAR     32  22  66 N5        30.27S
COLLEGE PARK*  CLEAR     34  25  69 NW5       30.25R
LEESBURG*      CLEAR     32  27  80 N7        30.26R
MANASSAS*      CLEAR     28  25  86 N3        30.26S
GAITHERSBURG*  CLEAR     28  19  69 CALM      30.27R

$$

MDZ006>007-011-014-200400-
BALTIMORE METRO

CITY           SKY/WX    TMP DP  RH WIND       PRES   REMARKS
BWI AIRPORT    CLEAR     30  21  69 W3        30.24R
MD SCIENCE CTR   N/A     35  21  56 MISG      30.23R
MARTIN STATE   CLEAR     30  25  80 W7        30.25R
ANNAPOLIS      CLEAR     35  23  61 W6        30.25R

$$

MDZ012-015-019>023-200400-
MARYLAND EASTERN SHORE

CITY           SKY/WX    TMP DP  RH WIND       PRES   REMARKS
OCEAN CITY     CLEAR     29  23  78 NW5       30.21R
SALISBURY      CLEAR     34  24  67 NW3       30.21R
BAY BRIDGE AP*   N/A     34  25  69 NW10      30.24R WCI  26
CAMBRIDGE*     CLEAR     37  27  65 NW9       30.22R
EASTON*        CLEAR     34  28  77 N5        30.27R

$$

MDZ017>025-200400-
SOUTHERN MARYLAND

CITY           SKY/WX    TMP DP  RH WIND       PRES   REMARKS
PATUXENT RIVER CLEAR     33  23  66 NW9       30.24R WCI  25
ST INIGOES     CLEAR     34  21  59 NW6       30.24R
LEONARDTOWN*   CLEAR     32  23  69 CALM      30.25S

$$

MDZ003>005-200400-
NORTH CENTRAL MARYLAND

CITY           SKY/WX    TMP DP  RH WIND       PRES   REMARKS
FREDERICK*     CLEAR     32  19  59 NW5       30.28R
HAGERSTOWN APT CLEAR     30  19  63 NW8       30.24R WCI  22
WESTMINSTER*   PTCLDY    28  21  74 NW8       30.20S WCI  20

$$

MDZ501>502-200400-
WESTERN MARYLAND

CITY           SKY/WX    TMP DP  RH WIND       PRES   REMARKS
OAKLAND*       CLOUDY    21 N/A N/A NW5       30.15R
CUMBERLAND*    CLOUDY    34  21  60 NW3       30.30S

$$

VAZ025>031-200400-
SHENANDOAH VALLEY

CITY           SKY/WX    TMP DP  RH WIND       PRES   REMARKS
WINCHESTER*    CLEAR     32  19  59 NW9       30.25R WCI  24
FRONT ROYAL*   FAIR      27  21  80 CALM      30.24S
LURAY*         FAIR      28  25  86 S3        30.24R
NEW MARKET*    FAIR      23  20  90 CALM      30.24R
STAUNTON*      CLEAR     28  21  76 N5        30.24R
WAYNESBORO*    FAIR      27  21  77 W3        30.21R

$$

WVZ021-048>050-054>055-200400-
EASTERN WEST VIRGINIA PANHANDLE

CITY           SKY/WX    TMP DP  RH WIND       PRES   REMARKS
MARTINSBURG    CLEAR     32  19  58 NW9       30.25R WCI  24
PETERSBURG*    MOCLDY    29  22  77 CALM      30.27S

$$

VAZ036>039-050-200400-
CENTRAL FOOTHILLS

CITY           SKY/WX    TMP DP  RH WIND       PRES   REMARKS
CHARLOTTESVILL CLEAR     32  22  66 CALM      30.23R
CULPEPER*      CLEAR     28  23  80 CALM      30.25S
ORANGE*        CLEAR     28  25  86 CALM      30.25R
GORDONSVILLE*  FAIR      25  22  88 CALM      30.23R
WARRENTON*     FAIR      27  26  94 CALM      30.24S

$$

VAZ055>057-200400-
NORTH AND CENTRAL PIEDMONT

CITY           SKY/WX    TMP DP  RH WIND       PRES   REMARKS
FREDERICKSBRG* CLEAR     34  25  69 N5        30.25S
STAFFORD*      CLEAR     32  21  64 N5        30.30R

$$

NCZ024-NYZ072-PAZ021-071-VAZ022-071-200400-
OTHER REGIONAL OBSERVATIONS

CITY           SKY/WX    TMP DP  RH WIND       PRES   REMARKS
NEW YORK CITY  CLEAR     32  20  61 NW9       30.18R WCI  24
PHILADELPHIA   MOCLDY    34  21  59 N7        30.22R
PITTSBURGH     CLOUDY    29  21  72 NW6       30.25F
ROANOKE        PTCLDY    33  22  63 N9        30.23S WCI  25
RICHMOND       MOCLDY    34  23  64 N9        30.24R WCI  27
RALEIGH        CLOUDY    41  27  57 CALM      30.20S

$$

ANZ530>537-200400-
MARINE OBSERVATIONS

STATION/POSITION TIME  TEMP    WIND        PRES
                       AIR SEA DIR/SP/G
                 (UTC) (F)     (DEG/KT/KT) (MB)
THOMAS PT LIGHT  0300   35 41  310/  9/ 10 1025.3R
BALT KEY BRIDGE  0300   35     280/  9/ 10 1023.8R
COVE POINT       0300   34     320/  7/ 11 1023.6R
LEWISETTA        0300   36 42  330/  5/  7 1023.6R
SOLOMONS ISLAND  0300      43                N/A

$$




USA.gov is the U.S. government's official web portal to all federal, state and local government web resources and services.